Weather History for KRQE - August, 2013

Change the Weather History Date:

Monday, August 19, 2013

  Actual Average Record
Temperature  
Mean Temperature 70 °F -  
Max Temperature 87 °F 80 °F 91 °F (1987)
Min Temperature 52 °F 51 °F 38 °F (1949)
Cooling Degree Days 4    
Growing Degree Days 20 (Base 50)    
Moisture  
Dew Point 45 °F    
Average Humidity 47    
Maximum Humidity 83    
Minimum Humidity 18    
Precipitation  
Precipitation 0.00 in - - ()
Sea Level Pressure  
Sea Level Pressure 29.95 in    
Wind  
Wind Speed 3 mph (SW)    
Max Wind Speed 20 mph    
Max Gust Speed 28 mph    
Visibility 10 miles    
Events      
Averages and records for this station are not official NWS values.
T = Trace of Precipitation, MM = Missing Value Source: NWS Daily Summary

Daily Weather History Graph

Daily Weather History Graph

Search for Another Location

Airport or City:

Trip Planner

Search our weather history database for the weather conditions in past years. The results will help you decide how hot, cold, wet, or windy it might be!

Date:

Astronomy

Aug. 19, 2013 Rise Set
Actual Time 6:38 AM MDT 8:00 PM MDT
Civil Twilight 6:11 AM MDT 8:27 PM MDT
Nautical Twilight 5:39 AM MDT 8:59 PM MDT
Astronomical Twilight 5:06 AM MDT 9:32 PM MDT
Moon 6:53 PM MDT (8/19) 5:02 AM MDT (8/19)
Length of Visible Light 14h 15m
Length of Day
13h 21m
Waxing Gibbous, 97% of the Moon is Illuminated
Aug 19
Waxing Gibbous
Aug 20
Full
Aug 28
Last Quarter
Sep 5
New
Sep 12
First Quarter

Hourly Weather History & Observations

Time (MDT) Temp. Dew Point Humidity Pressure Visibility Wind Dir Wind Speed Gust Speed Precip Events Conditions
12:53 AM 57.0 °F 50.0 °F 77% 29.97 in 10.0 mi Calm Calm - N/A   Clear
1:53 AM 59.0 °F 48.9 °F 69% 29.97 in 10.0 mi Calm Calm - N/A   Clear
2:53 AM 57.9 °F 51.1 °F 78% 29.97 in 10.0 mi Calm Calm - N/A   Clear
3:53 AM 57.0 °F 48.9 °F 74% 29.98 in 10.0 mi Calm Calm - N/A   Clear
4:53 AM 55.0 °F 48.9 °F 80% 29.98 in 10.0 mi Calm Calm - N/A   Clear
5:53 AM 53.1 °F 48.0 °F 83% 29.97 in 10.0 mi Calm Calm - N/A   Scattered Clouds
6:53 AM 52.0 °F 46.9 °F 83% 30.02 in 10.0 mi Calm Calm - N/A   Clear
7:53 AM 55.0 °F 48.9 °F 80% 30.04 in 10.0 mi Calm Calm - N/A   Clear
8:53 AM 63.0 °F 50.0 °F 63% 30.04 in 10.0 mi Calm Calm - N/A   Clear
9:53 AM 72.0 °F 48.9 °F 44% 29.98 in 10.0 mi Variable 3.5 mph - N/A   Clear
10:53 AM 79.0 °F 46.9 °F 32% 29.95 in 10.0 mi Calm Calm - N/A   Clear
11:53 AM 82.0 °F 43.0 °F 25% 29.94 in 10.0 mi West 4.6 mph - N/A   Clear
12:53 PM 84.0 °F 41.0 °F 22% 29.94 in 10.0 mi South 9.2 mph - N/A   Partly Cloudy
1:53 PM 86.0 °F 39.0 °F 19% 29.89 in 10.0 mi West 10.4 mph - N/A   Partly Cloudy
2:53 PM 87.1 °F 37.9 °F 18% 29.87 in 10.0 mi WSW 8.1 mph 16.1 mph N/A   Partly Cloudy
3:53 PM 80.1 °F 43.0 °F 27% 29.90 in 10.0 mi SSE 4.6 mph - N/A   Mostly Cloudy
4:53 PM 82.0 °F 39.9 °F 22% 29.87 in 10.0 mi WSW 9.2 mph - N/A   Partly Cloudy
5:53 PM 79.0 °F 41.0 °F 26% 29.88 in 10.0 mi West 11.5 mph 18.4 mph N/A   Clear
6:53 PM 78.1 °F 41.0 °F 27% 29.89 in 10.0 mi SW 5.8 mph - N/A   Clear
7:53 PM 73.9 °F 43.0 °F 33% 29.90 in 10.0 mi Calm Calm - N/A   Clear
8:53 PM 73.9 °F 42.1 °F 32% 29.88 in 10.0 mi Variable 3.5 mph - N/A   Mostly Cloudy
9:53 PM 75.0 °F 43.0 °F 32% 29.87 in 10.0 mi West 6.9 mph 19.6 mph N/A   Overcast
10:30 PM 69.8 °F 46.4 °F 43% 30.30 in 10.0 mi ENE 19.6 mph 27.6 mph N/A   Overcast
10:53 PM 69.1 °F 48.0 °F 47% 29.91 in 10.0 mi ENE 15.0 mph 23.0 mph N/A   Overcast
11:53 PM 68.0 °F 48.0 °F 49% 29.91 in 10.0 mi Variable 4.6 mph - N/A   Mostly Cloudy